Location: Notre Dame Regional High School Observatory
(37.3056°N, 89.6097°W)
Time: 13:56:32
(UTC-05:00)

Okean 2 Rocket - Visible Passes

Search period start: 24 April 2017 00:00
Search period end: 04 May 2017 00:00
Orbit: 618 x 641 km, 82.5° (Epoch: 23 April)

Date Brightness Start Highest point End Pass type
(mag) Time Alt. Az. Time Alt. Az. Time Alt. Az.
24 Apr 4.7 21:42:25 10° NNE 21:44:59 22° NE 21:44:59 22° NE visible
24 Apr 5.5 23:20:24 10° NW 23:22:23 20° NW 23:22:23 20° NW visible
25 Apr 3.9 22:02:29 10° N 22:05:47 40° NE 22:05:47 40° NE visible
25 Apr 6.0 23:42:36 10° WNW 23:43:10 11° WNW 23:43:10 11° WNW visible
26 Apr 3.7 22:22:59 10° N 22:26:36 55° NNW 22:26:36 55° NNW visible
27 Apr 4.7 21:06:45 10° NNE 21:09:50 18° ENE 21:10:03 18° ENE visible
27 Apr 4.6 22:43:54 10° NNW 22:47:27 34° WNW 22:47:27 34° WNW visible
28 Apr 3.8 21:26:30 10° NNE 21:30:39 35° ENE 21:30:55 35° E visible
28 Apr 5.5 23:05:27 10° NW 23:08:18 17° W 23:08:18 17° W visible
29 Apr 3.0 21:46:49 10° N 21:51:21 76° E 21:51:48 68° SE visible
30 Apr 5.1 20:31:28 10° NE 20:33:31 13° ENE 20:35:19 11° E visible
30 Apr 3.8 22:07:32 10° NNW 22:11:54 50° W 22:12:43 44° SW visible
01 May 4.3 20:50:38 10° NNE 20:54:24 25° ENE 20:56:16 19° ESE visible
01 May 5.0 22:28:43 10° NW 22:32:20 24° W 22:33:40 21° WSW visible
02 May 3.3 21:10:44 10° N 21:15:09 52° E 21:17:14 28° SE visible
02 May 5.9 22:51:05 10° WNW 22:52:39 12° W 22:54:13 10° WSW visible
03 May 3.2 21:31:15 10° NNW 21:35:46 73° W 21:38:15 26° S visible
